CW8468 Weather Reports


Display with metric or nautical units.
time (UTC)temp
F
wind
direction
speed
MPH
gust
MPH
rain 1hr
in
rain 24hr
in
rain mn
in
humidity
%
barometer
mb
20260506023027 78 157 4.0 10.0 0.00 0.00 0.00 79 1007.1
20260506022503 78 171 4.0 10.0 0.00 0.00 0.00 79 1007.0
20260506022005 78 178 4.0 9.0 0.00 0.00 0.00 79 1007.1
20260506021518 79 137 4.0 9.0 0.00 0.00 0.00 78 1007.1
20260506021003 79 208 4.0 9.0 0.00 0.00 0.00 78 1007.1
20260506020026 79 145 2.0 7.0 0.00 0.00 0.00 77 1006.9
20260506015502 79 236 2.0 6.0 0.00 0.00 0.00 77 1006.9
20260506014518 79 235 2.0 9.0 0.00 0.00 0.00 77 1006.8
20260506014003 79 158 2.0 6.0 0.00 0.00 0.00 77 1006.7
20260506013503 79 200 3.0 6.0 0.00 0.00 0.00 77 1006.6
20260506013026 79 150 3.0 6.0 0.00 0.00 0.00 76 1006.6
20260506012502 79 212 3.0 10.0 0.00 0.00 0.00 76 1006.4
20260506012004 79 162 3.0 12.0 0.00 0.00 0.00 76 1006.3
20260506011517 79 159 2.0 9.0 0.00 0.00 0.00 76 1006.2
20260506011003 79 148 2.0 7.0 0.00 0.00 0.00 75 1006.2
20260506010503 79 195 2.0 6.0 0.00 0.00 0.00 74 1006.1
20260506010027 80 168 3.0 7.0 0.00 0.00 0.00 74 1006.0
20260506004517 80 209 3.0 9.0 0.00 0.00 0.00 74 1005.9
20260506004003 80 181 3.0 9.0 0.00 0.00 0.00 74 1005.9
20260506003025 80 155 3.0 8.0 0.00 0.00 0.00 75 1006.0
20260506002502 80 176 3.0 8.0 0.00 0.00 0.00 75 1005.9
20260506002003 80 128 3.0 8.0 0.00 0.00 0.00 75 1005.7
20260506001517 80 184 3.0 8.0 0.00 0.00 0.00 74 1005.7
20260506001003 81 150 3.0 8.0 0.00 0.00 0.00 74 1005.8
20260506000026 81 37 3.0 7.0 0.00 0.00 0.00 73 1005.9
20260505235502 81 178 3.0 10.0 0.00 0.00 0.00 73 1005.9
20260505235004 81 200 4.0 10.0 0.00 0.00 0.00 73 1005.8
20260505234517 81 177 4.0 8.0 0.00 0.00 0.00 72 1005.8
20260505234003 81 152 4.0 8.0 0.00 0.00 0.00 73 1005.7
20260505233503 81 173 4.0 9.0 0.00 0.00 0.00 73 1005.7
20260505233025 81 155 4.0 10.0 0.00 0.00 0.00 73 1005.8
20260505232503 81 191 4.0 10.0 0.00 0.00 0.00 73 1005.7
20260505232003 81 146 3.0 9.0 0.00 0.00 0.00 73 1005.7
20260505231002 81 172 3.0 8.0 0.00 0.00 0.00 73 1005.7
20260505230502 81 191 4.0 8.0 0.00 0.00 0.00 72 1005.8
20260505230025 82 192 4.0 10.0 0.00 0.00 0.00 72 1005.8
20260505225501 82 168 4.0 10.0 0.00 0.00 0.00 72 1005.9
20260505224516 82 151 4.0 11.0 0.00 0.00 0.00 72 1005.8
20260505224002 82 174 4.0 11.0 0.00 0.00 0.00 72 1005.7
20260505223501 82 180 4.0 10.0 0.00 0.00 0.00 72 1005.8
20260505223027 82 202 5.0 10.0 0.00 0.00 0.00 72 1005.8
20260505221002 83 181 4.0 11.0 0.00 0.00 0.00 72 1005.9
20260505220501 83 156 4.0 10.0 0.00 0.00 0.00 72 1005.9
20260505220025 83 156 4.0 8.0 0.00 0.00 0.00 71 1006.0
20260505215501 83 146 5.0 11.0 0.00 0.00 0.00 71 1006.1
20260505215002 83 84 5.0 11.0 0.00 0.00 0.00 71 1006.2
20260505214516 82 167 4.0 11.0 0.00 0.00 0.00 71 1006.2
20260505214002 83 133 3.0 9.0 0.00 0.00 0.00 72 1006.3
20260505213501 83 216 4.0 9.0 0.00 0.00 0.00 72 1006.3
20260505212501 82 165 4.0 13.0 0.00 0.00 0.00 72 1006.4
20260505212001 83 231 5.0 13.0 0.00 0.00 0.00 71 1006.4
20260505211516 83 161 4.0 12.0 0.00 0.00 0.00 71 1006.4
20260505211002 83 156 4.0 9.0 0.00 0.00 0.00 71 1006.5
20260505210501 83 320 4.0 9.0 0.00 0.00 0.00 71 1006.6
20260505210025 83 158 3.0 9.0 0.00 0.00 0.00 72 1006.8
20260505205501 83 148 3.0 7.0 0.00 0.00 0.00 71 1006.8
20260505205002 83 183 4.0 9.0 0.00 0.00 0.00 71 1006.8
20260505204516 82 75 5.0 11.0 0.00 0.00 0.00 72 1006.8
20260505204001 83 220 5.0 12.0 0.00 0.00 0.00 70 1006.9
20260505203501 83 135 4.0 12.0 0.00 0.00 0.00 70 1007.0
20260505203025 83 243 3.0 8.0 0.00 0.00 0.00 70 1006.9
20260505202501 83 177 4.0 10.0 0.00 0.00 0.00 70 1007.0
20260505202002 83 166 5.0 10.0 0.00 0.00 0.00 70 1007.2
20260505201515 83 244 4.0 10.0 0.00 0.00 0.00 71 1007.3
20260505201004 83 200 4.0 11.0 0.00 0.00 0.00 71 1007.5
20260505200501 82 210 4.0 11.0 0.00 0.00 0.00 71 1007.6
20260505195005 82 202 4.0 12.0 0.00 0.00 0.00 71 1007.6
20260505194515 82 326 5.0 10.0 0.00 0.00 0.00 70 1007.7
20260505193027 82 270 5.0 10.0 0.00 0.00 0.00 72 1007.7
20260505192501 82 200 5.0 10.0 0.00 0.00 0.00 72 1007.9
20260505192001 82 181 4.0 10.0 0.00 0.00 0.00 73 1007.8
20260505191515 82 281 4.0 11.0 0.00 0.00 0.00 74 1007.9
20260505190503 82 118 4.0 15.0 0.00 0.00 0.00 73 1007.8
20260505190025 82 185 7.0 16.0 0.00 0.00 0.00 71 1007.8
20260505185459 82 146 6.0 16.0 0.00 0.00 0.00 70 1007.8
20260505185001 83 187 4.0 15.0 0.00 0.00 0.00 70 1008.0
20260505184515 83 199 4.0 12.0 0.00 0.00 0.00 71 1008.0
20260505184001 82 241 4.0 12.0 0.00 0.00 0.00 72 1008.0
20260505183500 82 211 4.0 11.0 0.00 0.00 0.00 72 1008.1
20260505183027 81 252 4.0 9.0 0.00 0.00 0.00 73 1008.1
20260505182500 81 191 5.0 11.0 0.00 0.00 0.00 74 1008.2
20260505181001 81 171 3.0 11.0 0.00 0.00 0.00 74 1008.2
20260505180500 81 241 4.0 11.0 0.00 0.00 0.00 74 1008.3
20260505180024 80 189 4.0 10.0 0.00 0.00 0.00 76 1008.4
20260505175500 80 184 3.0 10.0 0.00 0.00 0.00 76 1008.4
20260505175001 79 214 3.0 8.0 0.00 0.00 0.00 77 1008.5
20260505174514 79 206 4.0 10.0 0.00 0.00 0.00 76 1008.5
20260505173500 80 125 4.0 12.0 0.00 0.00 0.00 75 1008.6
20260505172002 79 228 4.0 12.0 0.00 0.00 0.00 76 1008.7
20260505170500 80 206 3.0 11.0 0.00 0.00 0.00 76 1008.6
20260505170020 79 169 3.0 9.0 0.00 0.00 0.00 77 1008.8
20260505165500 79 268 4.0 16.0 0.00 0.00 0.00 79 1008.9
20260505165001 78 234 4.0 16.0 0.00 0.00 0.00 79 1009.0
20260505164001 77 153 3.0 9.0 0.00 0.00 0.00 82 1008.9
20260505163500 77 152 3.0 7.0 0.00 0.00 0.00 82 1008.8
20260505163023 77 233 3.0 6.0 0.00 0.00 0.00 81 1008.8
20260505162459 77 228 3.0 10.0 0.00 0.00 0.00 80 1008.8
20260505161515 78 200 3.0 13.0 0.00 0.00 0.00 80 1008.8
20260505161001 78 161 3.0 13.0 0.00 0.00 0.00 80 1008.7
20260505153023 76 233 3.0 11.0 0.00 0.00 0.00 81 1008.5
20260505152500 76 146 3.0 10.0 0.00 0.00 0.00 81 1008.5
20260505152001 76 169 3.0 10.0 0.00 0.00 0.00 82 1008.5
20260505151515 76 118 3.0 8.0 0.00 0.00 0.00 82 1008.5
20260505151000 76 227 3.0 7.0 0.00 0.00 0.00 82 1008.5
20260505140500 75 181 5.0 11.0 0.00 0.00 0.00 83 1008.1
20260505124514 72 175 2.0 6.0 0.00 0.00 0.00 86 1007.8
20260505124000 72 164 2.0 6.0 0.00 0.00 0.00 87 1008.0
20260505123025 72 189 2.0 7.0 0.00 0.00 0.00 87 1008.0
20260505122001 72 194 2.0 5.0 0.00 0.00 0.00 87 1007.9
20260505121515 71 184 2.0 5.0 0.00 0.00 0.00 87 1008.0
20260505121001 71 168 2.0 7.0 0.00 0.00 0.00 87 1007.9
20260505120501 71 180 2.0 7.0 0.00 0.00 0.00 87 1007.7
20260505120023 71 170 2.0 7.0 0.00 0.00 0.00 87 1007.6
20260505115459 71 206 2.0 6.0 0.00 0.00 0.00 87 1007.6
20260505114513 71 162 2.0 4.0 0.00 0.00 0.00 87 1007.4
20260505114000 71 170 1.0 3.0 0.00 0.00 0.00 87 1007.6
20260505113459 71 180 1.0 5.0 0.00 0.00 0.00 87 1007.8
20260505113023 71 164 2.0 5.0 0.00 0.00 0.00 87 1008.0
20260505111959 71 124 2.0 4.0 0.00 0.00 0.00 87 1007.7
20260505111000 70 188 1.0 7.0 0.00 0.00 0.00 87 1007.7
20260505110501 70 207 1.0 5.0 0.00 0.00 0.00 87 1007.6
20260505102001 70 177 1.0 3.0 0.00 0.00 0.00 87 1007.8
20260505101514 70 124 1.0 3.0 0.00 0.00 0.00 87 1007.6
20260505100459 70 171 1.0 2.0 0.00 0.00 0.00 86 1007.8
20260505100021 70 179 1.0 2.0 0.00 0.00 0.00 86 1007.9
20260505095457 70 169 1.0 2.0 0.00 0.00 0.00 86 1008.0
20260505094958 70 198 1.0 4.0 0.00 0.00 0.00 86 1007.9
20260505094513 70 195 1.0 4.0 0.00 0.00 0.00 86 1007.8
20260505093959 70 189 2.0 5.0 0.00 0.00 0.00 86 1007.7
20260505093458 70 193 2.0 5.0 0.00 0.00 0.00 86 1007.8
20260505093024 70 193 2.0 4.0 0.00 0.00 0.00 86 1007.8
20260505092458 70 175 1.0 4.0 0.00 0.00 0.00 85 1007.7
20260505091513 70 174 2.0 4.0 0.00 0.00 0.00 85 1008.0
20260505090959 70 156 1.0 4.0 0.00 0.00 0.00 85 1008.1
20260505090457 70 179 1.0 3.0 0.00 0.00 0.00 85 1008.1
20260505090024 70 185 1.0 3.0 0.00 0.00 0.00 85 1008.2
20260505085459 70 212 1.0 3.0 0.00 0.00 0.00 85 1008.1
20260505085000 70 142 1.0 4.0 0.00 0.00 0.00 85 1008.1
20260505084514 70 164 1.0 4.0 0.00 0.00 0.00 85 1008.1
20260505084000 70 181 1.0 4.0 0.00 0.00 0.00 85 1008.0
20260505083458 70 162 1.0 4.0 0.00 0.00 0.00 85 1008.2
20260505082459 70 205 1.0 4.0 0.00 0.00 0.00 84 1008.3
20260505082001 70 169 1.0 4.0 0.00 0.00 0.00 84 1008.3
20260505081513 70 180 1.0 4.0 0.00 0.00 0.00 84 1008.4
20260505080458 70 162 2.0 6.0 0.00 0.00 0.00 84 1008.4
20260505080025 70 187 2.0 7.0 0.00 0.00 0.00 84 1008.5
20260505075459 70 131 1.0 7.0 0.00 0.00 0.00 83 1008.5
20260505075000 70 158 2.0 6.0 0.00 0.00 0.00 83 1008.6
20260505074514 70 163 2.0 6.0 0.00 0.00 0.00 83 1008.6
20260505073959 71 193 2.0 6.0 0.00 0.00 0.00 83 1008.6
20260505073459 70 168 2.0 9.0 0.00 0.00 0.00 83 1008.6
20260505073023 71 142 2.0 9.0 0.00 0.00 0.00 82 1008.6
20260505071959 71 173 2.0 5.0 0.00 0.00 0.00 82 1008.7
20260505071514 71 148 3.0 7.0 0.00 0.00 0.00 82 1008.8
20260505070458 71 161 2.0 7.0 0.00 0.00 0.00 82 1008.8
20260505070025 71 161 2.0 6.0 0.00 0.00 0.00 82 1008.8
20260505065458 71 187 3.0 7.0 0.00 0.00 0.00 82 1008.8
20260505064958 71 179 3.0 9.0 0.00 0.00 0.00 81 1008.9
20260505064512 71 166 3.0 9.0 0.00 0.00 0.00 81 1008.9
20260505063958 71 112 3.0 7.0 0.00 0.00 0.00 81 1009.0
20260505063458 71 245 3.0 6.0 0.00 0.00 0.00 81 1009.1
20260505063023 71 145 3.0 8.0 0.00 0.00 0.00 81 1009.1
20260505062458 71 152 3.0 10.0 0.00 0.00 0.00 81 1009.3
20260505061958 71 173 3.0 10.0 0.00 0.00 0.00 81 1009.4
20260505061513 71 164 2.0 8.0 0.00 0.00 0.00 80 1009.4
20260505061000 71 162 3.0 8.0 0.00 0.00 0.00 80 1009.6
20260505060458 71 183 2.0 8.0 0.00 0.00 0.00 80 1009.6
20260505060024 71 200 2.0 5.0 0.00 0.00 0.00 80 1009.6
20260505055501 71 68 2.0 6.0 0.00 0.00 0.00 80 1009.5
20260505055002 71 135 2.0 6.0 0.00 0.00 0.00 80 1009.5
20260505054517 71 166 2.0 6.0 0.00 0.00 0.00 79 1009.4
20260505053025 71 165 2.0 6.0 0.00 0.00 0.00 79 1009.6
20260505052502 71 170 2.0 6.0 0.00 0.00 0.00 79 1009.7
20260505052003 71 173 2.0 7.0 0.00 0.00 0.00 79 1009.8
20260505051516 71 204 2.0 8.0 0.00 0.00 0.00 79 1009.9
20260505041518 72 145 2.0 7.0 0.00 0.00 0.00 76 1009.8
20260505041004 72 171 3.0 8.0 0.00 0.00 0.00 76 1009.8
20260505040503 72 169 4.0 9.0 0.00 0.00 0.00 76 1009.8
20260505040025 72 125 3.0 9.0 0.00 0.00 0.00 76 1010.0
20260505035503 72 176 3.0 10.0 0.00 0.00 0.00 76 1010.1
20260505035004 72 154 3.0 10.0 0.00 0.00 0.00 76 1010.0
20260505034517 72 206 3.0 9.0 0.00 0.00 0.00 76 1010.0
20260505034003 72 194 3.0 8.0 0.00 0.00 0.00 75 1010.3
20260505033502 72 204 4.0 9.0 0.00 0.00 0.00 75 1010.3
20260505033027 72 161 4.0 9.0 0.00 0.00 0.00 75 1010.3
20260505032503 73 174 4.0 10.0 0.00 0.00 0.00 75 1010.3
20260505032003 73 164 3.0 10.0 0.00 0.00 0.00 75 1010.2
20260505031517 73 223 3.0 7.0 0.00 0.00 0.00 74 1010.1
20260505031004 73 175 4.0 11.0 0.00 0.00 0.00 74 1010.1
20260505030503 73 156 4.0 11.0 0.00 0.00 0.00 74 1010.1
20260505030027 73 175 4.0 11.0 0.00 0.00 0.00 74 1010.1
20260505025503 73 199 5.0 10.0 0.00 0.00 0.00 74 1010.1
20260505025004 73 187 4.0 10.0 0.00 0.00 0.00 74 1010.1
20260505024517 73 179 4.0 10.0 0.00 0.00 0.00 74 1010.1
20260505024004 73 182 3.0 10.0 0.00 0.00 0.00 74 1010.2
20260505023503 73 148 2.0 10.0 0.00 0.00 0.00 73 1010.1